Change the Weather History Date:

Friday, August 29, 2014

  Actual Average Record
Temperature  
Mean Temperature 74 °F -  
Max Temperature 89 °F 77 °F 100 °F (2007)
Min Temperature 59 °F 61 °F 53 °F (2013)
Cooling Degree Days 9    
Growing Degree Days 24 (Base 50)    
Moisture  
Dew Point 63 °F    
Average Humidity 71    
Maximum Humidity 94    
Minimum Humidity 26    
Precipitation  
Precipitation 0.00 in - - ()
Sea Level Pressure  
Sea Level Pressure 30.01 in    
Wind  
Wind Speed 3 mph ()    
Max Wind Speed 13 mph    
Max Gust Speed -    
Visibility 6.7 miles    
Events      
Averages and records for this station are not official NWS values.
T = Trace of Precipitation, MM = Missing Value Source: Averaged Metar Reports

Daily Weather History Graph

Daily Weather History Graph

Search for Another Location

Airport or City:

Trip Planner

Search our weather history database for the weather conditions in past years. The results will help you decide how hot, cold, wet, or windy it might be!

Date:

Astronomy

Aug. 29, 2014 Rise Set
Actual Time 6:46 AM CEST 8:01 PM CEST
Civil Twilight 6:17 AM CEST 8:30 PM CEST
Nautical Twilight 5:43 AM CEST 9:04 PM CEST
Astronomical Twilight 5:07 AM CEST 9:40 PM CEST
Moon 10:23 AM CEST (8/29) 9:46 PM CEST (8/29)
Length of Visible Light 14h 12m
Length of Day
13h 15m
Waxing Crescent, 13% of the Moon is Illuminated
Aug 29
Waxing Crescent
Sep 2
First Quarter
Sep 9
Full
Sep 16
Last Quarter
Sep 24
New

Hourly Weather History & Observations

Time (CEST) Temp. Heat Index Dew Point Humidity Pressure Visibility Wind Dir Wind Speed Gust Speed Precip Events Conditions
12:00 AM 62 °F - 59 °F 87% 30.01 in 22 mi Calm Calm - -   Clear
12:00 AM 62.6 °F - 59.0 °F 88% 30.01 in 6.2 mi Calm Calm - N/A   Mostly Cloudy
12:30 AM 62.6 °F - 60.8 °F 94% 30.01 in 6.2 mi North 2.3 mph - N/A   Mostly Cloudy
1:00 AM 63 °F - 61 °F 90% 30.02 in 12 mi Calm Calm - -   Clear
1:00 AM 62.6 °F - 60.8 °F 94% 30.01 in 6.2 mi Calm Calm - N/A   Overcast
1:30 AM 64.4 °F - 60.8 °F 88% 30.01 in 6.2 mi Calm Calm - N/A   Overcast
2:00 AM 63 °F - 61 °F 89% 30.01 in 12 mi NNE 1.2 mph - -   Clear
2:00 AM 62.6 °F - 60.8 °F 94% 30.01 in 6.2 mi NNE 1.2 mph - N/A   Mostly Cloudy
2:30 AM 64.4 °F - 60.8 °F 88% 30.01 in 6.2 mi NNW 2.3 mph - N/A   Overcast
3:00 AM 62 °F - 60 °F 89% 30.01 in 12 mi Calm Calm - -   Clear
3:00 AM 62.6 °F - 59.0 °F 88% 30.01 in 6.2 mi Calm Calm - N/A   Mostly Cloudy
3:30 AM 62.6 °F - 60.8 °F 94% 30.01 in 6.2 mi Variable 2.3 mph - N/A   Mostly Cloudy
4:00 AM 62 °F - 60 °F 90% 30.01 in 8 mi Calm Calm - -   Clear
4:00 AM 62.6 °F - 59.0 °F 88% 30.01 in 6.2 mi Calm Calm - N/A   Partly Cloudy
4:30 AM 62.6 °F - 60.8 °F 94% 30.01 in 6.2 mi Variable 1.2 mph - N/A   Mostly Cloudy
5:00 AM 63 °F - 62 °F 93% 30.01 in 9 mi South 1.2 mph - -   Clear
5:00 AM 62.6 °F - 60.8 °F 94% 30.01 in 6.2 mi Variable 1.2 mph - N/A   Overcast
5:30 AM 64.4 °F - 62.6 °F 94% 30.01 in 6.2 mi ESE 2.3 mph - N/A   Overcast
6:00 AM 62 °F - 59 °F 88% 30.01 in 9 mi North 2.3 mph - -   Clear
6:00 AM 62.6 °F - 59.0 °F 88% 30.01 in 6.2 mi North 2.3 mph - N/A   Partly Cloudy
6:30 AM 60.8 °F - 59.0 °F 94% 30.01 in 6.2 mi NNE 2.3 mph - N/A   Unknown
7:00 AM 60 °F - 58 °F 90% 30.03 in 8 mi Calm Calm - -   Clear
7:00 AM 59.0 °F - 57.2 °F 94% 30.01 in 6.2 mi Calm Calm - N/A   Unknown
7:30 AM 62.6 °F - 60.8 °F 94% 30.01 in 6.2 mi Calm Calm - N/A   Unknown
8:00 AM 65 °F - 63 °F 92% 30.03 in 10 mi Calm Calm - -   Clear
8:00 AM 66.2 °F - 62.6 °F 88% 30.01 in 6.2 mi Calm Calm - N/A   Unknown
8:30 AM 69.8 °F - 66.2 °F 88% 30.04 in 6.2 mi Calm Calm - N/A   Unknown
9:00 AM 74 °F - 68 °F 75% 30.03 in 31 mi South 1.2 mph - -   Clear
9:00 AM 73.4 °F - 68.0 °F 83% 30.01 in 6.2 mi Calm Calm - N/A   Unknown
9:30 AM 77.0 °F - 66.2 °F 69% 30.01 in 6.2 mi Variable 2.3 mph - N/A   Unknown
10:00 AM 79 °F - 66 °F 56% 30.03 in 34 mi WSW 3.5 mph - -   Clear
10:00 AM 78.8 °F - 66.2 °F 65% 30.01 in 6.2 mi Variable 3.5 mph - N/A   Unknown
10:30 AM 80.6 °F 82.7 °F 66.2 °F 61% 30.04 in 6.2 mi SSW 6.9 mph - N/A   Unknown
11:00 AM 82 °F - 66 °F 50% 30.03 in 37 mi SW 5.8 mph - -   Clear
11:00 AM 82.4 °F 84.6 °F 66.2 °F 58% 30.04 in 6.2 mi SW 5.8 mph - N/A   Unknown
11:30 AM 82.4 °F 85.4 °F 68.0 °F 62% 30.04 in 6.2 mi SSW 9.2 mph - N/A   Unknown
12:00 PM 84 °F - 67 °F 47% 30.03 in 37 mi SSW 6.9 mph - -   Clear
12:00 PM 84.2 °F 86.6 °F 66.2 °F 55% 30.01 in 6.2 mi SSW 6.9 mph - N/A   Unknown
12:30 PM 84.2 °F 86.6 °F 66.2 °F 55% 30.01 in 6.2 mi SSW 9.2 mph - N/A   Unknown
1:00 PM 85 °F - 66 °F 44% 30.02 in 37 mi SSW 9.2 mph - -   Clear
1:00 PM 84.2 °F 86.6 °F 66.2 °F 55% 30.01 in 6.2 mi SSW 9.2 mph - N/A   Partly Cloudy
1:30 PM 84.2 °F 86.6 °F 66.2 °F 55% 30.01 in 6.2 mi South 9.2 mph - N/A   Unknown
2:00 PM 84 °F - 65 °F 43% 30.01 in 37 mi SSW 9.2 mph - -   Clear
2:00 PM 84.2 °F 85.6 °F 64.4 °F 51% 30.01 in 6.2 mi SSW 9.2 mph - N/A   Unknown
2:30 PM 86.0 °F 87.3 °F 64.4 °F 48% 30.01 in 6.2 mi SSW 8.1 mph - N/A   Unknown
3:00 PM 86 °F - 64 °F 38% 30.01 in 37 mi SSW 9.2 mph - -   Clear
3:00 PM 86.0 °F 87.3 °F 64.4 °F 48% 30.01 in 6.2 mi SSW 9.2 mph - N/A   Unknown
3:30 PM 87.8 °F 88.5 °F 62.6 °F 43% 30.01 in 6.2 mi SSW 10.4 mph - N/A   Unknown
4:00 PM 89 °F - 59 °F 27% 30.01 in 34 mi SW 8.1 mph - -   Clear
4:00 PM 89.6 °F 88.9 °F 59.0 °F 36% 30.01 in 6.2 mi SW 8.1 mph - N/A   Unknown
4:30 PM 89.6 °F 88.9 °F 59.0 °F 36% 29.98 in 6.2 mi SW 11.5 mph - N/A   Unknown
5:00 PM 89 °F - 58 °F 26% 29.99 in 34 mi SW 9.2 mph - -   Clear
5:00 PM 89.6 °F 88.9 °F 59.0 °F 36% 29.98 in 6.2 mi SW 9.2 mph - N/A   Unknown
5:30 PM 87.8 °F 87.6 °F 60.8 °F 40% 29.98 in 6.2 mi SW 12.7 mph - N/A   Unknown
6:00 PM 86 °F - 59 °F 30% 29.99 in 31 mi SW 10.4 mph - -   Clear
6:00 PM 86.0 °F 85.4 °F 59.0 °F 40% 29.98 in 6.2 mi SW 10.4 mph - N/A   Unknown
6:30 PM 82.4 °F 84.6 °F 66.2 °F 58% 29.98 in 6.2 mi South 10.4 mph - N/A   Unknown
7:00 PM 80 °F - 68 °F 59% 29.98 in 37 mi South 10.4 mph - -   Clear
7:00 PM 78.8 °F - 68.0 °F 69% 29.98 in 6.2 mi South 10.4 mph - N/A   Unknown
7:30 PM 78.8 °F - 64.4 °F 61% 29.98 in 6.2 mi South 6.9 mph - N/A   Unknown
8:00 PM 77.0 °F - 66.2 °F 69% 29.98 in 6.2 mi SE 5.8 mph - N/A   Unknown
8:30 PM 73.4 °F - 66.2 °F 78% 29.98 in 6.2 mi Variable 2.3 mph - N/A   Unknown
9:00 PM 71 °F - 64 °F 74% 29.99 in 37 mi SSE 2.3 mph - -   Clear
9:00 PM 71.6 °F - 64.4 °F 78% 29.98 in 6.2 mi Variable 2.3 mph - N/A   Unknown
9:30 PM 69.8 °F - 62.6 °F 78% 29.98 in 6.2 mi Variable 1.2 mph - N/A   Unknown
10:00 PM 70 °F - 65 °F 81% 30.00 in 34 mi ESE 4.6 mph - -   Clear
10:00 PM 69.8 °F - 66.2 °F 88% 29.98 in 6.2 mi ESE 4.6 mph - N/A   Unknown
10:30 PM 69.8 °F - 64.4 °F 83% 29.98 in 6.2 mi Variable 1.2 mph - N/A   Unknown
11:00 PM 68 °F - 64 °F 82% 30.01 in 34 mi NE 1.2 mph - -   Clear
11:00 PM 68.0 °F - 64.4 °F 88% 30.01 in 6.2 mi NE 1.2 mph - N/A   Unknown
11:30 PM 68.0 °F - 62.6 °F 83% 30.01 in 6.2 mi West 1.2 mph - N/A   Unknown